Location: Drocourt
(49.0571°N, 1.7669°E)
Time: 04:03:58
(UTC+00:00)

SR - Visible Passes

Search period start: 22 April 2024 00:00
Search period end: 02 May 2024 00:00
Orbit: 577 x 862 km, 66.7° (Epoch: 21 April)

Date Brightness Start Highest point End Pass type
(mag) Time Alt. Az. Time Alt. Az. Time Alt. Az.
22 Apr ? 01:31:38 73° SSW 01:32:09 83° ESE 01:37:15 10° NE visible
22 Apr ? 03:10:51 12° W 03:14:35 24° NW 03:18:40 10° NNE visible
23 Apr ? 00:40:42 43° E 00:40:42 43° E 00:44:59 10° NE visible
23 Apr ? 02:19:55 27° W 02:22:06 38° NW 02:26:48 10° NNE visible
23 Apr ? 04:02:52 10° NW 04:05:20 13° NNW 04:07:44 10° N visible
23 Apr ? 23:49:44 21° E 23:49:44 21° E 23:52:20 10° ENE visible
24 Apr ? 01:28:57 56° W 01:29:47 66° NW 01:34:49 10° NNE visible
24 Apr ? 03:08:56 10° WNW 03:12:33 18° NNW 03:16:00 10° NNE visible
25 Apr ? 00:37:56 68° E 00:37:56 68° E 00:42:41 10° NE visible
25 Apr ? 02:17:08 18° W 02:19:55 27° NW 02:24:10 10° NNE visible
25 Apr ? 04:02:04 10° NNW 04:03:28 11° NNW 04:04:50 10° N visible
25 Apr ? 23:46:51 33° E 23:46:51 33° E 23:50:18 10° NE visible
26 Apr ? 01:26:04 36° W 01:27:28 44° NW 01:32:15 10° NNE visible
26 Apr ? 03:07:47 10° WNW 03:10:33 14° NNW 03:13:14 10° N visible
26 Apr ? 22:55:43 16° E 22:55:43 16° E 22:57:25 10° ENE visible
27 Apr ? 00:34:56 75° W 00:35:10 77° NW 00:40:12 10° NNE visible
27 Apr ? 02:14:08 11° W 02:17:47 20° NNW 02:21:27 10° NNE visible
27 Apr ? 23:43:45 53° E 23:43:45 53° E 23:47:59 10° NE visible
28 Apr ? 01:22:57 22° W 01:25:10 31° NW 01:29:34 10° NNE visible
28 Apr ? 03:06:49 10° NW 03:08:35 12° NNW 03:10:19 10° N visible
28 Apr ? 22:52:30 26° E 22:52:30 26° E 22:55:28 10° NE visible
29 Apr ? 00:31:41 44° W 00:32:44 51° NW 00:37:36 10° NNE visible
29 Apr ? 02:12:37 10° WNW 02:15:41 16° NNW 02:18:38 10° N visible
29 Apr ? 22:01:10 13° E 22:01:10 13° E 22:02:17 10° ENE visible
29 Apr ? 23:40:21 87° SSW 23:40:27 90° SE 23:45:29 10° NE visible
30 Apr ? 01:19:33 13° W 01:22:56 23° NW 01:26:48 10° NNE visible
30 Apr ? 22:48:57 46° E 22:48:57 46° E 22:53:10 10° NE visible
01 May ? 00:28:08 25° W 00:30:21 35° NW 00:34:53 10° NNE visible
01 May ? 02:11:31 10° NW 02:13:37 12° NNW 02:15:41 10° N visible
01 May ? 21:57:26 24° E 21:57:26 24° E 22:00:29 10° ENE visible
01 May ? 23:36:36 45° WSW 23:37:56 60° NW 23:42:50 10° NNE visible
